User: anonymous   Login
Location: Unspecified
(0.0000°N, 0.0000°E)
Time: 01:00:43
(UTC+00:00)
Language:

TBA - TO BE ASSIGNED - Orbit

View from above orbital plane
View from above orbital plane
View from above satellite
View from above satellite

Ground track
Ground track

The orbit is defined by the following mean orbital elements,

1 68015U          26145.39459723 +.00000000 +00000-0 +49576-3 0 00007
2 68015  97.2845  94.3390 0001721 101.5276 258.6160 15.33447138    05
Epoch (UTC): 25 May 2026 09:28:13
Eccentricity: 0.0001721
inclination: 97.2845°
perigee height: 464 km
apogee height: 467 km
right ascension of ascending node: 94.3390°
argument of perigee: 101.5276°
revolutions per day: 15.33447138
mean anomaly at epoch: 258.6160°

The dashed part of the orbit path shows where the satellite is in the earth's shadow,  

DLR